Regional Weather Roundup
Issued by NWS Charleston, WV

Home | Current Version | Previous Version | Graphics & Text | Print | Product List | Glossary On
Versions: 1 2 3 4 5 6 7 8 9 10 11 12 13 14 15 16 17 18 19 20 21 22 23 24 25 26 27 28 29 30 31 32 33 34 35 36 37 38 39 40 41 42 43 44 45 46 47 48 49 50
000
ASUS41 KRLX 110510
RWRRLX
West Virginia Regional Weather Roundup
National Weather Service Charleston WV
1200 AM EST THU FEB 11 2016

Note: "fair" indicates few or no clouds below 12,000 feet with no
significant weather and/or obstructions to visibility.

WVZ003-110600-
Northern Panhandle of West Virginia

CITY           SKY/WX    TMP DP  RH WIND       PRES   REMARKS
WHEELING       CLOUDY    13   6  74 W15G22    29.98R WCI  -3
$$

WVZ009-110600-
Northwest West Virginia

CITY           SKY/WX    TMP DP  RH WIND       PRES   REMARKS
PARKERSBURG    MOCLDY    14   4  64 W9        30.11R WCI   2
$$

WVZ006-110600-
Western West Virginia

CITY           SKY/WX    TMP DP  RH WIND       PRES   REMARKS
HUNTINGTON     FLURRIES  18   9  68 SW7       30.12S WCI   9
$$

WVZ015-110600-
West Central West Virginia

CITY           SKY/WX    TMP DP  RH WIND       PRES   REMARKS
CHARLESTON     FLURRIES  17   8  67 W7        30.11S WCI   8
$$

WVZ022-031-110600-
North Central West Virginia

CITY           SKY/WX    TMP DP  RH WIND       PRES   REMARKS
CLARKSBURG     LGT SNOW  14   7  73 W14G24    30.02R WCI  -1
MORGANTOWN     CLOUDY    14   4  64 W7        29.99S WCI   4
$$

WVZ025-035-042-045-110600-
Southern West Virginia

CITY           SKY/WX    TMP DP  RH WIND       PRES   REMARKS
BECKLEY        LGT SNOW  10   5  80 W6        29.98R WCI   0
LOGAN          CLOUDY    16   9  73 SW6       30.06F WCI   7
BLUEFIELD      CLOUDY     9   1  70 W12G25    29.95S WCI  -6
LEWISBURG      LGT SNOW  14   8  78 NW8G16    29.97R WCI   3
$$

WVZ047-110600-
Northern Mountains of West Virginia

CITY           SKY/WX    TMP DP  RH WIND       PRES   REMARKS
ELKINS         FLURRIES  12   3  67 VRB7G21   29.96R WCI   1
$$

WVZ052-110600-
Eastern Panhandle of West Virginia

CITY           SKY/WX    TMP DP  RH WIND       PRES   REMARKS
MARTINSBURG      N/A     21   6  52 W21       29.94R WCI   5
PETERSBURG     CLOUDY    20   6  53 CALM      29.98R
$$



USA.gov is the U.S. government's official web portal to all federal, state and local government web resources and services.